MST,Max TemperatureF,Mean TemperatureF,Min TemperatureF,Max Dew PointF,MeanDew PointF,Min DewpointF,Max Humidity, Mean Humidity, Min Humidity, Max Sea Level PressureIn, Mean Sea Level PressureIn, Min Sea Level PressureIn, Max VisibilityMiles, Mean VisibilityMiles, Min VisibilityMiles, Max Wind SpeedMPH, Mean Wind SpeedMPH, Max Gust SpeedMPH,PrecipitationIn, CloudCover, Events, WindDirDegrees
2012-12-1,62,48,34,34,31,28,82,56,30,29.88,29.78,29.66,10,10,10,17,3,21,0.00,0,,300
2012-12-2,65,48,31,34,28,25,82,52,22,29.85,29.62,29.36,10,10,10,26,10,33,0.00,0,,175
2012-12-3,63,46,29,37,20,11,66,42,18,30.17,29.90,29.42,10,10,10,47,17,60,T,1,,308
2012-12-4,52,40,28,19,18,16,63,44,24,30.31,30.17,30.04,10,10,10,26,8,30,0.00,0,,234
2012-12-5,62,46,29,38,29,19,70,52,34,30.04,29.84,29.67,10,10,10,30,5,36,T,2,Rain,336
2012-12-6,43,37,30,28,20,10,70,49,27,30.09,30.00,29.87,10,8,1,26,9,46,0.04,8,Snow,198
2012-12-7,33,26,19,28,26,18,100,89,78,30.01,29.92,29.81,10,8,1,16,5,20,0.04,7,Snow,59
2012-12-8,40,26,11,26,19,3,88,74,59,30.11,29.79,29.66,10,9,2,44,18,54,T,5,Snow,345
2012-12-9,15,7,-1,3,-1,-5,87,69,51,30.50,30.31,30.01,10,8,3,43,18,53,T,4,Snow,357
2012-12-10,37,18,-2,21,12,-5,83,65,47,30.09,29.97,29.74,10,10,10,33,8,43,T,5,,312
2012-12-11,42,27,12,19,14,10,92,60,28,29.96,29.82,29.65,10,10,10,17,6,22,0.00,3,,216
2012-12-12,56,39,22,25,21,17,85,57,28,29.84,29.70,29.62,10,10,10,20,8,24,0.00,0,,283
2012-12-13,44,32,19,29,22,17,96,73,49,30.07,29.96,29.81,10,5,0,20,8,24,0.00,3,Fog,93
2012-12-14,45,33,20,26,21,15,88,67,45,29.87,29.73,29.62,10,10,10,23,4,25,0.00,0,,359
2012-12-15,40,29,18,22,17,11,77,55,32,29.87,29.78,29.65,10,10,10,24,12,30,0.00,4,,344
2012-12-16,43,29,15,22,18,13,92,68,44,29.83,29.75,29.63,10,10,10,22,8,25,0.00,4,,96
2012-12-17,41,27,12,25,16,7,84,62,40,29.77,29.60,29.45,10,10,10,18,6,22,T,4,,48
2012-12-18,44,30,16,24,11,1,88,53,18,29.87,29.72,29.54,10,10,10,22,9,26,0.00,0,,298
2012-12-19,33,22,11,12,7,2,61,49,37,30.21,30.06,29.87,10,10,10,28,11,35,0.00,3,,320
2012-12-20,44,25,6,7,3,-2,69,44,19,30.26,30.19,30.12,10,10,10,12,5,14,0.00,0,,230
2012-12-21,54,35,15,18,9,4,61,39,16,30.17,30.06,29.93,10,10,10,14,5,15,0.00,0,,321
2012-12-22,37,24,10,16,11,3,92,59,26,30.14,30.06,29.90,10,10,6,20,9,23,0.00,0,,19
2012-12-23,22,14,5,13,8,3,92,80,68,30.18,30.01,29.79,10,5,1,22,9,25,T,6,Snow,14
2012-12-24,12,8,3,7,4,-1,88,82,76,30.47,30.17,29.93,10,4,1,20,7,24,0.10,8,Snow,59
2012-12-25,7,0,-7,1,-2,-9,91,85,79,30.59,30.42,30.07,10,6,2,14,5,15,0.03,6,Snow,149
2012-12-26,11,2,-7,7,0,-8,96,85,73,30.25,30.07,29.79,10,9,2,10,3,12,T,4,,3
2012-12-27,13,4,-5,8,4,-8,92,84,76,30.18,30.00,29.77,10,7,2,17,9,21,0.04,6,Snow,353
2012-12-28,23,8,-7,13,4,-9,91,77,62,30.20,30.16,30.12,10,10,8,6,1,7,0.00,3,,290
2012-12-29,30,17,4,19,11,1,88,69,50,30.23,30.16,29.99,10,10,10,8,3,9,0.00,0,,192
2012-12-30,31,20,8,21,14,6,88,71,53,30.21,30.09,29.86,10,10,6,29,12,35,0.00,0,,339
2012-12-31,22,12,2,16,9,1,96,85,73,30.24,30.20,30.02,10,10,10,10,3,12,0.00,1,,137